    Orbital elements:
    2018 BY2                                            PHA, Earth MOID = 0.0417 AU
    Epoch 2019 Apr. 27.0 TT = JDT 2458600.5                 Veres
    M 189.50005              (2000.0)            P               Q
    n   0.46891188     Peri.  330.15950     -0.98941444     -0.13224222
    a   1.6408740      Node   202.47687     +0.14334277     -0.95480856
    e   0.3814994      Incl.    8.99270     -0.02262572     -0.26618152
    P   2.10           H   20.5           G   0.15           U   0
    Residuals in seconds of arc
    180103 F51  0.1+  0.0     180408 246  0.1-  0.1-    180423 I15  0.1-  0.2-
    180103 F51  0.1+  0.0     180408 246  0.0   0.0     180423 W71  0.1+  0.5-
    180103 F51  0.0   0.0     180408 G34  0.8+  0.6+    180423 W71  0.4-  0.1-
    180103 F51  0.0   0.0     180408 G34  0.6+  0.3-    180423 W71  0.1-  0.4-
    180117 F51  0.1+  0.1+    180408 G34  0.1+  0.3+    180423 G48  0.0   0.2-
    180117 F51  0.0   0.1+    180408 G34  0.3+  0.1+    180423 G48 (0.4-  1.6-)
    180117 F51  0.0   0.0     180408 G34  0.1+  0.0     180423 G48  0.7+  0.1+
    180118 807  0.0   0.1-    180409 C36  0.5-  0.8-    180423 G48 (1.6+  0.4-)
    180118 807  0.1-  0.1-    180409 C36 (1.5+  1.3+)   180423 G48  1.3+  0.4+
    180118 807  0.1-  0.0     180411 Y00  0.4-  0.1-    180423 703  0.3-  0.0
    180118 W89  0.1+  0.1+    180411 Y00  1.3-  0.4-    180423 703  0.3-  0.1-
    180118 W89  0.3+  0.2-    180411 Y00  0.4-  1.4-    180423 703  0.1-  0.0
    180118 W89  0.1+  0.1-    180411 703  0.2+  0.0     180423 703  0.4-  0.1+
    180118 W89  0.2+  0.1+    180411 703  0.2-  0.1-    180423 T05  0.1-  0.2-
    180118 I52  0.2-  0.1+    180411 703  0.1-  0.1-    180423 T05  0.0   0.1-
    180118 I52  0.4-  0.1+    180411 703  0.3-  0.1+    180423 T05  0.1-  0.2-
    180118 I52  0.1+  0.2-    180411 H45  0.3-  0.2+    180423 T05  0.1-  0.0
    180118 I52  0.1-  0.4-    180411 H45  0.3-  0.0     180423 160  0.1-  0.1-
    180118 H01  0.1+  0.1+    180411 H45  0.3-  0.2-    180423 160  0.1-  0.1-
    180118 H01  0.0   0.1+    180411 H45  0.1+  0.3-    180423 160  0.3-  0.0
    180118 H01  0.1+  0.0     180411 H45  0.3-  0.2+    180424 W71  0.1-  1.0-
    180118 H01  0.1+  0.0     180411 H45  0.3-  0.0     180424 W71  0.7-  0.6-
    180118 H36  0.6+  0.1-    180411 K74  0.1-  0.0     180424 W71  0.4-  0.0
    180118 H36  0.6-  0.8+    180411 G34  0.3+  0.2-    180424 W71  0.5-  0.3-
    180118 H36  0.1-  1.1+    180411 K74  0.2-  0.0     180424 C95  1.0-  0.1-
    180118 568  0.1+  0.1+    180411 K74  0.2-  0.1-    180424 C95  0.2-  0.1+
    180118 568  0.0   0.1+    180411 G34  0.2+  0.0     180424 160  0.2-  0.1-
    180118 587  0.2-  0.3+    180411 K74  0.1-  0.1-    180424 160  0.2-  0.2-
    180118 587  0.5-  0.4+    180411 K74  0.1-  0.2+    180424 160  0.2-  0.5+
    180118 587  0.7-  0.1+    180411 G34  0.1+  0.0     180424 C95  0.0   0.0
    180119 I52  0.2-  0.6-    180411 L18 (1.9+  0.7+)   180425 K88  0.1+  0.2+
    180119 I52  0.4+  0.5-    180411 L18 (1.6+  1.5+)   180425 K88  0.0   0.2+
    180119 I52  0.4+  0.8-    180411 L18  0.7-  0.3-    180425 K88  0.1-  0.1+
    180119 B74  0.6-  0.0     180411 C36  1.2+  0.6+    180425 K88  0.1+  0.3+
    180119 B74  0.1-  0.1-    180411 C36  1.5+  0.7-    180425 K88  0.1+  0.2+
    180119 B74  0.5+  0.3+    180411 C36  0.4+  0.8+    180425 K88  0.1+  0.1+
    180120 I52  0.2+  0.1+    180411 C36 (1.5+  0.2+)   180425 K88  0.1+  0.1+
    180120 I52  0.0   0.1-    180412 T08  0.1-  0.0     180425 K88  0.0   0.1+
    180120 I52  0.2-  0.1+    180412 T08  0.1-  0.1-    180425 K88  0.0   0.1+
    180120 I52  0.0   0.1-    180412 T08  0.1-  0.0     180425 160  0.1-  0.1+
    180120 703  1.1+  0.6-    180412 T08  0.1-  0.1-    180425 160  0.3-  0.1-
    180120 703  0.0   0.4-    180412 T08  0.2-  0.2-    180425 160  0.3-  0.1-
    180120 703  0.6+  0.3+    180412 T08  0.1-  0.1-    180426 160  0.1+  0.2-
    180124 691  0.3-  0.1-    180412 T08  0.2-  0.1-    180426 160  0.2-  0.1-
    180124 691  0.1-  0.4-    180412 T08  0.0   0.0     180426 160  0.4-  0.0
    180124 691  0.3+  0.0     180413 151  0.0   0.0     180430 P93  0.2+  0.0
    180125 691  0.6-  0.3-    180413 151  0.0   0.1-    180430 P93  0.1-  0.2+
    180125 691  0.4-  0.3-    180413 151  0.0   0.1-    180430 P93  0.2-  0.1+
    180125 691  0.5-  0.1-    180413 151  0.3-  0.1-    180503 D29  0.0   0.1-
    180125 F51  0.0   0.1+    180413 151  0.2-  0.1-    180503 D29  0.1-  0.1-
    180125 F51  0.0   0.0     180413 151  0.1-  0.2-    180503 D29  0.1-  0.1-
    180125 F51  0.1+  0.1+    180413 246  0.3+  0.1+    180504 Z80  1.0-  0.1-
    180128 807  0.4-  0.3+    180413 246  0.4-  0.2-    180504 Z80  0.3+  0.2+
    180128 807  0.3-  0.1+    180413 246  0.0   0.1+    180504 Z80  0.9-  0.9-
    180128 807  0.2-  0.2-    180413 246  0.1+  0.1-    180504 Z80  0.4-  0.5+
    180128 I52  0.2-  0.1+    180413 246  0.0   0.1-    180504 Z80  0.2+  0.3+
    180128 I52  0.0   0.0     180413 246  0.2+  0.2-    180504 Z80  0.0   0.1+
    180128 I52  0.1+  0.1-    180414 G96  0.0   0.1-    180504 Z80  0.2-  0.5-
    180128 I52  1.0+  0.3-    180414 G96  0.1-  0.1-    180504 Z80  1.0+  0.3-
    180204 807  0.1+  0.0     180414 G96  0.1-  0.1-    180504 Z80  0.5+  0.2+
    180204 807  0.0   0.0     180414 G96  0.0   0.1-    180504 Z80  0.1-  0.2+
    180204 807  0.1-  0.0     180414 703  0.2-  0.0     180505 G48  0.9+  0.8+
    180204 691  0.4-  0.5-    180414 703  0.1-  0.1-    180505 G48  0.1+  0.9-
    180204 691  0.2-  0.2-    180414 703  0.2-  0.1-    180505 G48  0.6+  0.2-
    180204 691  0.2-  0.2+    180414 703  0.1-  0.2-    180505 703  0.1+  0.3-
    180208 I52  0.2-  0.1-    180414 C36 (1.6+  0.1+)   180505 703  0.3+  0.5+
    180208 I52  0.2-  0.1+    180414 C36 (1.5+  0.1-)   180505 703  0.2-  0.2-
    180208 I52  0.1+  0.2-    180414 C36  1.0+  0.6+    180505 703  0.2-  0.3-
    180208 711  0.6-  0.2-    180414 C36  1.4+  0.4+    180505 Z43  0.1-  0.3+
    180208 711  0.0   0.0     180414 C36  0.8+  0.4+    180505 Z43  0.4+  0.3+
    180208 711  0.1+  0.6-    180414 C36  0.9+  0.5+    180505 Z43  0.1-  0.1-
    180208 I52  0.2+  0.1-    180414 C36  1.3+  0.8+    180505 Z43  0.5-  0.1+
    180212 F51  0.1+  0.1+    180416 K74  0.2-  0.0     180505 Z43  0.3-  0.0
    180212 F51  0.0   0.1+    180416 K74  0.0   0.0     180505 Z43  0.8-  0.5-
    180212 F51  0.1+  0.1+    180416 K74  0.0   0.1-    180506 Z43  0.0   0.4-
    180212 F51  0.1+  0.1+    180416 A17  0.2-  0.0     180506 Z43  0.9-  0.4-
    180223 807  0.2+  0.2-    180416 A17  0.2-  0.3-    180506 Z43  0.2+  0.1+
    180223 807  0.2+  0.1-    180416 A17  0.1-  0.0     180506 Z43  0.0   0.6-
    180223 807  0.0   0.1+    180416 A17  0.4-  0.1-    180507 703  0.2-  0.0
    180305 807  0.0   0.1-    180416 A17  0.3-  0.0     180507 703  0.0   0.3-
    180305 807  0.0   0.0     180416 A17  0.1-  0.1-    180507 703  0.1-  0.0
    180305 807  0.2+  0.1-    180416 A17  0.1-  0.0     180507 703  0.1-  0.1-
    180309 703  0.4-  0.0     180416 A17  0.0   0.0     180507 C36  0.1-  0.6+
    180309 703  0.8-  1.1+    180416 A17  0.0   0.2-    180507 C36  0.2+  1.0+
    180309 703  0.0   0.2-    180417 107  0.6+  0.5+    180507 C36  0.0   0.8+
    180316 691  1.0-  0.1+    180417 107  0.0   0.4+    180507 C36  0.2+  0.1-
    180316 691  0.1-  0.1+    180417 107  0.9+  0.5+    180507 C36  0.3+  0.0
    180316 691  0.4-  0.2+    180417 Z43  0.4-  0.1-    180507 Z80  0.5-  0.9+
    180316 T05  0.0   0.3+    180417 107  0.4+  0.3+    180507 Z80  0.0   0.4-
    180316 T05  0.2+  0.0     180417 Z43  0.1+  0.3-    180507 Z80  0.2+  0.5+
    180316 T05  0.0   0.1-    180417 Z43  0.2-  0.2-    180507 Z80  0.1+  0.5-
    180316 T05  0.0   0.0     180417 Z43  0.3+  0.7-    180507 Z80  0.2+  0.3-
    180317 474  0.0   0.1+    180417 C77  0.1+  0.3+    180507 Z80  0.7+  0.4+
    180317 474  0.2+  0.1+    180417 C77  0.5-  0.2+    180507 Z80  0.4-  0.4-
    180317 474  0.0   0.1-    180417 C77  0.2-  0.2+    180507 Z80  0.6-  0.1-
    180317 474  0.2+  0.2+    180417 Z43  0.1+  0.1-    180509 W71  0.1+  0.3-
    180318 691  0.1-  0.0     180417 Z43  0.2-  0.3+    180509 W71  0.2-  0.4-
    180318 691  0.2+  0.0     180417 Z80  0.0   0.2-    180509 W71  0.6-  0.4-
    180318 691  0.2-  0.2-    180417 Z80  0.2-  0.4+    180509 W71  0.2-  0.5-
    180321 246  0.4-  0.0     180417 Z80  0.3-  0.1+    180509 I52  0.2-  0.1-
    180321 246  0.6-  0.4-    180417 Z80  0.3+  0.3-    180509 I52  0.0   0.1-
    180321 246 (0.7+  1.9-)   180417 Z80  0.4+  0.4+    180509 I52  0.0   0.1-
    180331 H21  0.1+  0.0     180417 Z80  0.2+  0.1+    180509 I52  0.2-  0.1+
    180331 H21  0.1+  0.2-    180417 Z80  0.1-  0.1+    180510 W71  0.6-  0.3-
    180331 H21  0.4+  0.4-    180417 Z80  0.4-  0.1+    180510 W71  0.3-  0.1-
    180331 H21  0.4+  0.1-    180417 Z80  0.0   0.2+    180510 W71  0.3-  0.2-
    180331 H21  0.0   0.8-    180417 Z80  0.1+  0.0     180510 W71  0.9-  0.3-
    180331 H21  0.2+  0.5-    180417 Z80  0.1+  0.1-    180510 W71  0.1-  0.2-
    180331 H06  0.0   0.7+    180417 Z80  0.0   0.3+    180510 G48  0.2+  0.3-
    180331 H06  0.1+  0.1-    180418 W34  0.2-  0.1+    180510 G48  0.1-  0.1-
    180331 H06  0.0   0.1-    180418 W34  0.0   0.2-    180510 G48  0.1+  0.0
    180331 H06  0.2-  0.4-    180418 W34  0.2+  0.2-    180510 G48  0.9+  0.0
    180401 A48  0.6-  0.1+    180418 T05  0.1-  0.0     180510 G96  0.0   0.1-
    180401 A48  0.1-  0.4+    180418 T05  0.1-  0.0     180510 G96  0.1-  0.0
    180401 A48  0.2-  0.2-    180418 T05  0.3-  0.2-    180510 G96  0.1+  0.4+
    180401 A48  0.0   0.2-    180418 T05  0.3-  0.1-    180510 G96  0.4+  0.1+
    180402 U69  0.3+  0.1+    180418 C97 (3.8-  1.2-)   180510 I52  0.0   0.0
    180402 U69  0.1+  0.2+    180418 C97 (4.1-  2.1-)   180510 I52  0.4-  0.1-
    180402 U69  0.2+  0.3-    180418 C97 (1.6-  0.2-)   180510 I52  0.1-  0.0
    180402 U69  0.0   0.1-    180418 C97 (2.4-  0.4+)   180510 I52  0.0   0.4-
    180402 U69  0.1-  0.1+    180418 151  0.1+  0.3-    180510 A53  0.3+  0.2+
    180402 L04  0.1+  0.1+    180418 046  0.4+  0.0     180510 A53  0.6+  0.4+
    180402 L04  0.2+  0.1-    180418 046  0.5+  0.2-    180510 A53  0.4+  0.1+
    180402 L04  0.3+  0.1+    180418 151  0.1-  0.6-    180510 A53  0.5+  0.3+
    180404 691  0.1+  0.4-    180418 046  0.1-  0.2-    180511 703  0.3+  0.6-
    180404 691  0.0   0.2-    180418 151  0.1-  0.4-    180511 703  0.1+  0.3-
    180404 691  0.0   0.0     180418 046  0.5+  0.1-    180511 703  0.2-  0.2-
    180404 246  0.2-  0.3-    180418 151  0.1-  0.5-    180511 I52  0.1-  0.0
    180404 246  0.1+  0.3-    180418 046  0.1-  0.2+    180511 I52  0.2-  0.2-
    180404 246  0.4-  0.0     180418 046  0.1-  0.5-    180511 I52  0.5-  0.3+
    180404 246  0.1+  0.0     180418 151  0.2-  0.3-    180511 I52  0.1-  0.1-
    180404 246  0.6+  0.5+    180418 046  0.1+  0.3+    180514 W71  0.4-  0.3+
    180404 246  0.1-  0.2-    180418 151  0.1-  0.3-    180514 W71  0.4-  0.2+
    180404 246  0.2-  0.2+    180418 046  0.5+  0.3+    180514 W71  0.1-  0.3+
    180404 246  0.2+  0.1+    180418 Z43  0.2-  0.0     180514 W71  0.4+  0.3-
    180405 H45  0.1-  0.0     180418 Z43  0.4-  0.6+    180515 W71  0.1+  0.6+
    180405 H45  0.4-  0.1+    180418 Z43  0.6-  0.2-    180515 W71  0.6-  0.5-
    180405 H45  0.2-  0.1+    180418 203  0.1-  0.0     180515 W71  0.7-  0.2-
    180405 H45  0.1-  0.2+    180418 Z43  0.3-  0.0     180515 W71  0.1-  0.8-
    180405 H45  0.3-  0.0     180418 Z43  0.4-  0.1+    180515 703  0.1+  0.1+
    180405 H45  0.0   0.2+    180418 203  0.2-  0.1-    180515 703  0.3+  0.1+
    180405 H45  0.1+  0.2+    180418 160  0.1+  0.1-    180515 703  0.4+  0.3+
    180405 H45  0.1-  0.2+    180418 160  0.4-  0.1-    180515 703  0.4-  0.3+
    180405 691  0.7+  0.2+    180418 160  0.2-  0.3-    180515 T05  0.0   0.1-
    180405 691  0.5+  0.0     180418 203  0.0   0.1+    180515 T05  0.1+  0.1+
    180405 691  0.4+  0.7-    180419 T05  0.2-  0.0     180515 T05  0.6+  0.3+
    180405 Q62  0.4+  0.4+    180419 T05  0.1-  0.1-    180515 T05  0.4-  0.1-
    180405 Q62  0.3+  0.1+    180419 T05  0.3-  0.0     180517 703  0.3+  0.0
    180405 Q62  0.4+  0.2+    180419 T05  0.6-  0.1-    180517 703  0.1-  0.1-
    180405 Q62  0.4+  0.1+    180419 T05  0.1-  0.7-    180517 703  0.4-  0.0
    180405 C97 (8.8-  1.1-)   180419 T05  0.1+  0.1-    180517 703  0.3-  0.1-
    180405 C97  1.0+  0.5+    180419 T05  0.2-  0.1+    180518 W71  0.7+  0.7-
    180405 C97 (2.6-  1.0-)   180419 T05  0.1+  0.3-    180518 W71  0.1+  0.2+
    180405 C97 (0.5+  1.5+)   180419 A48  0.3-  0.6+    180518 W71  0.2-  0.1+
    180405 107  0.0   0.2-    180419 A48  0.4+  0.3+    180518 W71  0.2-  0.5+
    180405 107  0.2-  0.2+    180419 A48  0.1-  0.6+    180520 I52  0.1+  0.1+
    180405 107  0.0   0.5+    180419 A48  0.0   0.3+    180520 I52  0.0   0.1-
    180405 107  0.1+  0.6+    180419 A53  0.3+  0.4+    180520 I52  0.0   0.2-
    180405 107  0.3+  0.4-    180419 A53  0.1-  0.7+    180520 I52  0.4-  0.1+
    180405 107  0.4+  0.5-    180419 A53  0.8+  0.4+    180521 G96  0.1-  0.0
    180405 107  0.1+  0.3-    180419 A53  0.4+  0.4+    180521 G96  0.1-  0.0
    180405 107  0.1+  0.1-    180419 A53  1.1+  0.3+    180521 G96  0.1-  0.1-
    180405 204  0.0   0.0     180419 046  0.3-  0.1+    180521 G96  0.1-  0.0
    180405 204  0.0   0.2+    180419 046  0.5+  0.5+    180521 T05  0.2-  0.1+
    180405 204  0.3-  0.3+    180419 046  0.3+  0.8+    180521 T05  0.7-  0.3-
    180405 G40  0.1-  0.1+    180419 046  0.6+  0.4+    180521 T05  0.4-  0.3-
    180405 G40  0.2+  0.1+    180419 046  0.4+  0.1-    180521 T05  0.0   0.1+
    180405 G40  0.1-  0.0     180419 046  0.1-  0.5+    180521 T05  0.0   0.2+
    180405 G40  0.2-  0.1+    180419 046  0.3+  0.6+    180521 T05  0.4+  0.2+
    180405 G40  0.0   0.0     180419 046  0.6+  0.4+    180521 T05  0.0   0.1+
    180405 G40  0.3+  0.0     180419 046  0.5+  0.0     180521 T05  0.1-  0.1+
    180405 G40  0.2-  0.1-    180419 160  0.0   0.1-    180523 I52  0.0   0.1-
    180405 G40  0.1+  0.1+    180419 160 (3.4-  1.8-)   180523 I52  0.1-  0.2-
    180405 G40  0.0   0.1+    180419 160  0.2+  0.2+    180523 I52  0.0   0.2+
    180405 G40  0.1+  0.1+    180420 G96  0.0   0.2-    180523 I52  0.3-  0.2-
    180405 G40  0.1+  0.2+    180420 G96  0.1+  0.2-    180524 703  1.3+  1.1+
    180405 G40  0.1+  0.2+    180420 G96  0.1-  0.1-    180524 703  0.1-  0.3+
    180406 246  0.1+  0.0     180420 G96  0.2-  0.1-    180524 703  0.1+  0.7+
    180406 246  0.3-  0.2-    180420 160  0.4-  0.1-    180524 I52  0.2+  0.1-
    180406 246  0.2-  0.2+    180420 160  0.1-  0.0     180524 I52  0.1+  0.0
    180406 246  0.4-  0.2-    180421 160  0.2-  0.2-    180524 I52  0.2-  0.4-
    180406 246  0.2-  0.1-    180421 703  0.3-  0.0     180524 I52  0.0   0.0
    180406 246  0.0   0.2-    180421 703  0.3-  0.1-    180604 I52  0.1+  0.3+
    180406 246  0.4-  0.1-    180421 703  0.3-  0.1-    180604 I52  0.1-  0.3+
    180406 K61  0.3+  0.1-    180421 703  0.1-  0.0     180604 I52  0.1-  0.0
    180406 K61  0.4+  0.3-    180421 A48  0.5-  1.0+    180606 I52  0.1-  0.1-
    180406 K61  0.6+  0.4+    180421 A48  0.3-  0.2-    180606 I52  0.4+  0.2+
    180407 703  0.2-  0.1+    180421 A48  0.1+  0.4+    180606 I52  0.4-  0.7+
    180407 703  0.3-  0.0     180421 A48  0.2+  0.2+    180606 I52  0.3+  0.3+
    180407 703  1.3-  0.3-    180421 Z43  0.1-  0.1-    180606 D29  0.0   0.4+
    180407 703  0.5-  0.0     180421 Z43  0.4-  0.3-    180606 D29  0.0   0.4-
    180407 046  0.2-  0.2+    180421 Z43  0.0   0.7-    180606 D29  0.2+  0.0
    180407 046  0.5-  0.0     180421 Z43  0.0   0.2+    180610 703  0.2-  0.8-
    180407 046  0.1+  0.3+    180421 Z43  0.2-  0.4-    180610 703  0.5-  0.6-
    180407 046  0.1-  0.4-    180421 160  0.0   0.4-    180610 703  0.5+  0.4+
    180407 046  0.0   0.1+    180421 160  0.1-  0.2+    180610 703  0.9+  0.5-
    180407 A48  0.5-  0.1-    180421 160  0.1+  0.2-    180610 I52  0.4+  0.2-
    180407 A48  0.3-  0.0     180422 W71  0.4+  0.0     180610 I52  0.5+  0.2+
    180407 A48  0.0   0.2+    180422 W71  0.3+  0.1+    180610 I52  0.0   0.4-
    180407 A48  0.2-  0.4-    180422 W71  0.2+  0.0     180610 I52  0.2-  0.4-
    180408 H45  0.1-  0.2+    180422 W71  0.2+  0.0     180611 I52  0.0   0.1-
    180408 H45  0.1-  0.2+    180422 C36  0.4+  0.1-    180611 I52  0.2+  0.1+
    180408 H45  0.1-  0.3+    180422 C36  0.3+  0.1+    180611 I52  0.1+  0.2-
    180408 H45  0.1-  0.1+    180422 C36  0.4+  0.2+    180611 I52  0.1+  0.0
    180408 H45  0.2-  0.1+    180422 C36  0.0   0.5+    180612 G96  0.2-  0.0
    180408 H45  0.1-  0.1+    180422 C36  0.5+  0.4+    180612 G96  0.3-  0.7+
    180408 703  0.1-  0.0     180422 C36  0.1+  0.5+    180612 G96  0.1+  0.1+
    180408 703  0.3-  0.1-    180422 C36  0.7+  0.1-    180612 G96  0.0   0.2-
    180408 703  0.3+  0.3+    180422 C36 (1.5+  0.4+)   180701 I52  0.2-  0.1+
    180408 703  0.1+  0.0     180422 C36  0.6+  0.0     180701 I52  0.1+  0.8+
    180408 P93  1.0-  0.2-    180422 160  0.1-  0.4-    180701 I52  0.4+  0.6+
    180408 P93  0.2-  0.0     180422 160  0.3-  0.2-    180704 I52  0.2+  0.2-
    180408 P93  0.7-  0.7-    180422 160  0.1-  0.2-    180704 I52  0.0   0.3-
    180408 L04  0.1+  0.0     180422 A53  0.7+  0.6+    180704 I52  0.6+  0.5+
    180408 L04  0.1+  0.1+    180422 A53  0.5+  0.2+    180705 F51  0.1-  0.0
    180408 L04  0.2+  0.1-    180422 A53  0.1+  0.2+    180705 F51  0.1-  0.0
    180408 246  0.2+  0.2+    180422 A53  0.5+  0.4+    190924 T12  0.0   0.0
    180408 246  0.0   0.1+    180422 A53  0.5+  0.3+    190924 T12  0.0   0.0
    180408 246  0.1-  0.1+    180423 W71  0.0   0.1-    190925 T12  0.1-  0.0
    180408 246  0.1-  0.1+    180423 I15  0.2+  0.2-    190925 T12  0.0   0.0
    180408 246  0.1-  0.1-    180423 I15  0.1+  0.3-
    
